Regional Weather Roundup
Issued by NWS Northern Indiana

Home | Current Version | Previous Version | Graphics & Text | Print | Product List | Glossary On
Versions: 1 2 3 4 5 6 7 8 9 10 11 12 13 14 15 16 17 18 19 20 21 22 23 24 25 26 27 28 29 30 31 32 33 34 35 36 37 38 39 40 41 42 43 44 45 46 47 48 49 50
000
ASUS43 KIWX 010500
RWRIWX

KIWX WEATHER ROUNDUP
NATIONAL WEATHER SERVICE NORTHERN INDIANA
100 AM EDT TUE SEP 01 2015

NOTE: "FAIR" INDICATES FEW OR NO CLOUDS BELOW 12,000 FEET WITH NO
SIGNIFICANT WEATHER AND/OR OBSTRUCTIONS TO VISIBILITY.

* THESE STATIONS ARE NOT UNDER NWS QUALITY CONTROL. THEY ALSO MAY NOT
  REPORT WEATHER SUCH AS PRECIPITATION OR FOG.

INZ001>027-010600-
NORTHERN INDIANA

CITY           SKY/WX    TMP DP  RH WIND       PRES   REMARKS
VALPARAISO     FOG       70  68  94 CALM      30.07S VSB 1/4
KNOX*          CLEAR     68  68 100 S3        30.07S
SOUTH BEND     CLEAR     73  68  84 SE3       30.08S
GOSHEN         PTCLDY    69  67  93 CALM      30.08S FOG
MONTICELLO*    CLEAR     73  71  92 S3        30.07S
ANGOLA*        CLOUDY    68  57  68 CALM      30.10R VSB 0
FORT WAYNE     PTCLDY    72  69  90 SW3       30.10S

$$
INZ028>050-010600-
CENTRAL INDIANA

CITY           SKY/WX    TMP DP  RH WIND       PRES   REMARKS
LAFAYETTE      CLEAR     70  67  90 CALM      30.08R
KOKOMO*        MOCLDY    70  64  83 SW3       30.10R
MUNCIE*        PTCLDY    68  66  93 CALM      30.11S
INDIANAPOLIS   PTCLDY    74  67  78 S5        30.10R

$$
MIZ043>046-050>051-056>058-064>065-071>073-077>080-010600-
SOUTHWEST LOWER MICHIGAN

CITY           SKY/WX    TMP DP  RH WIND       PRES   REMARKS
BATTLE CREEK   CLEAR     67  65  93 S3        30.09S
BENTON HARBOR  CLEAR     68  66  93 CALM      30.06S FOG
COLDWATER*     PTCLDY    65  65 100 CALM      30.09F FOG
HILLSDALE*     FOG       65  65 100 CALM      30.11S VSB 1
HOLLAND        CLEAR     66  64  93 CALM      30.07S FOG
GRAND RAPIDS   CLEAR     66  64  93 SE3       30.07S FOG
KALAMAZOO      CLEAR     69  66  90 S3        30.09S
STURGIS*       MOCLDY    70  68  94 CALM      30.09S FOG
THREE RIVERS*  FAIR      67  67 100 CALM      30.09S FOG

$$
OHZ001>008-015>018-024>025-010600-
NORTHWEST OHIO

CITY           SKY/WX    TMP DP  RH WIND       PRES   REMARKS
DEFIANCE       CLEAR     71  68  90 CALM      30.09R FOG
FINDLAY        CLEAR     71  68  90 S3        30.09R
TOLEDO EXPRESS CLEAR     69  67  93 CALM      30.08R FOG
TOLEDO METCALF CLEAR     72  67  84 CALM      30.09R
LIMA           CLEAR     72  68  87 CALM      30.11R

$$
AND FOR LAKE MICHIGAN COASTAL AND OPEN LAKE BUOY OBSERVATIONS

STATION/POSITION TEMP    WIND        PRES    VSBY  WAVE
                 AIR SEA DIR/SP/G                  HT/PER
                 (F)     (DEG/KT/KT) (MB)    (MI)  (FT/S)
CALUMET HARBOR    75     170/  3/  3   N/A
MICHIGAN CITY     75     120/  6/  8   N/A
SAINT JOSEPH      72     130/  2/  4 1017.9F
SOUTH LAKE BUOY   71 70  150/  6/  8 1017.0R         0
4 MI NW BRIDGMAN  74 73  190/  6/  8   N/A           1
MICHIGAN CITY     74 72  160/  4/  6   N/A           0

$$
&&


USA.gov is the U.S. government's official web portal to all federal, state and local government web resources and services.